User: anonymous   Login
Location: Hiram
(41.3130°N, 81.1440°W)
Time: 11:59:02
(UTC-04:00)
Language:

Iridium 62 - Orbit

View from above orbital plane
View from above orbital plane
View from above satellite
View from above satellite

Ground track
Ground track

The orbit data is extracted from the following two-line orbital elements,

1 25285U 98021A   16206.51103819  .00000017  00000-0 -97688-6 0  9998
2 25285  86.3966   0.8905 0002205  88.2134 271.9314 14.34212806958054
Epoch (UTC): 24 July 2016 12:15:53
Eccentricity: 0.0002205
inclination: 86.3966°
perigee height: 776 km
apogee height: 779 km
right ascension of ascending node: 0.8905°
argument of perigee: 88.2134°
revolutions per day: 14.34212806
mean anomaly at epoch: 271.9314°
orbit number at epoch: 95805

The dashed part of the orbit path shows where the satellite is in the earth's shadow,  

DLR